Weather History for KSMQ - April, 2014

Change the Weather History Date:

Tuesday, April 1, 2014

  Actual Average Record
Temperature  
Mean Temperature 44 °F -  
Max Temperature 60 °F 55 °F 78 °F (1979)
Min Temperature 28 °F 33 °F 17 °F (1969)
Degree Days  
Heating Degree Days 22    
Moisture  
Dew Point 31 °F    
Average Humidity 61    
Maximum Humidity 92    
Minimum Humidity 35    
Precipitation  
Precipitation 0.00 in - - ()
Sea Level Pressure  
Sea Level Pressure 30.07 in    
Wind  
Wind Speed 2 mph (SSE)    
Max Wind Speed 8 mph    
Max Gust Speed -    
Visibility 10 miles    
Events      
Averages and records for this station are not official NWS values.
T = Trace of Precipitation, MM = Missing Value Source: NWS Daily Summary

Daily Weather History Graph

Daily Weather History Graph

Search for Another Location

Airport or City:

Trip Planner

Search our weather history database for the weather conditions in past years. The results will help you decide how hot, cold, wet, or windy it might be!

Date:

Astronomy

Apr. 01, 2014 Rise Set
Actual Time 6:42 AM EDT 7:23 PM EDT
Civil Twilight 6:14 AM EDT 7:50 PM EDT
Nautical Twilight 5:42 AM EDT 8:23 PM EDT
Astronomical Twilight 5:08 AM EDT 8:57 PM EDT
Moon 7:42 AM EDT (4/1) 9:44 PM EDT (4/1)
Length of Visible Light 13h 36m
Length of Day
12h 41m
Waxing Crescent, 4% of the Moon is Illuminated
Apr 1
Waxing Crescent
Apr 7
First Quarter
Apr 15
Full
Apr 22
Last Quarter
Apr 29
New

Hourly Weather History & Observations

Time (EDT) Temp. Windchill Dew Point Humidity Pressure Visibility Wind Dir Wind Speed Gust Speed Precip Events Conditions
12:53 AM 41.0 °F 39.0 °F 28.9 °F 62% 30.09 in 10.0 mi ENE 3.5 mph - N/A   Clear
1:53 AM 37.0 °F - 28.9 °F 73% 30.11 in 10.0 mi Calm Calm - N/A   Clear
2:53 AM 33.1 °F - 28.0 °F 82% 30.12 in 10.0 mi Calm Calm - N/A   Clear
3:53 AM 30.9 °F - 28.0 °F 89% 30.10 in 10.0 mi Calm Calm - N/A   Clear
4:53 AM 28.9 °F - 26.1 °F 89% 30.10 in 10.0 mi Calm Calm - N/A   Clear
5:53 AM 28.9 °F - 27.0 °F 92% 30.12 in 10.0 mi Calm Calm - N/A   Clear
6:53 AM 28.0 °F - 26.1 °F 92% 30.13 in 10.0 mi Calm Calm - N/A   Clear
7:53 AM 32.0 °F - 28.9 °F 88% 30.15 in 10.0 mi Calm Calm - N/A   Clear
8:53 AM 39.9 °F - 28.9 °F 65% 30.14 in 10.0 mi Calm Calm - N/A   Clear
9:53 AM 44.1 °F 42.5 °F 28.9 °F 55% 30.14 in 10.0 mi Variable 3.5 mph - N/A   Clear
10:53 AM 48.9 °F - 30.0 °F 48% 30.12 in 10.0 mi Variable 4.6 mph - N/A   Clear
11:53 AM 52.0 °F - 30.9 °F 45% 30.09 in 10.0 mi NW 3.5 mph - N/A   Clear
12:53 PM 55.0 °F - 33.1 °F 43% 30.08 in 10.0 mi Variable 3.5 mph - N/A   Clear
1:53 PM 57.0 °F - 30.0 °F 36% 30.04 in 10.0 mi Calm Calm - N/A   Clear
2:53 PM 59.0 °F - 30.9 °F 35% 30.02 in 10.0 mi South 8.1 mph - N/A   Clear
3:53 PM 59.0 °F - 30.9 °F 35% 29.99 in 10.0 mi SW 4.6 mph - N/A   Clear
4:53 PM 57.9 °F - 34.0 °F 41% 29.98 in 10.0 mi South 4.6 mph - N/A   Clear
5:53 PM 59.0 °F - 34.0 °F 39% 29.98 in 10.0 mi South 5.8 mph - N/A   Clear
6:53 PM 57.0 °F - 34.0 °F 42% 29.98 in 10.0 mi South 4.6 mph - N/A   Mostly Cloudy
7:53 PM 52.0 °F - 34.0 °F 50% 30.02 in 10.0 mi South 3.5 mph - N/A   Clear
8:53 PM 48.9 °F - 35.1 °F 59% 30.03 in 10.0 mi SSE 4.6 mph - N/A   Clear
9:53 PM 46.9 °F - 35.1 °F 63% 30.04 in 10.0 mi SE 4.6 mph - N/A   Clear
10:53 PM 43.0 °F 40.3 °F 35.1 °F 74% 30.05 in 10.0 mi SSE 4.6 mph - N/A   Clear
11:53 PM 42.1 °F 40.2 °F 35.1 °F 76% 30.05 in 10.0 mi ESE 3.5 mph - N/A   Clear